{"data":{"norad_id":66036,"intl_designator":"2025-233D","name":"QIANFAN-94","alt_names":[],"object_type":"PAYLOAD","status":"ACTIVE","operator":null,"country":"PRC","launch_date":"2025-10-17","launch_site_code":"TAISC","launch_vehicle":null,"mission":null,"orbit_class":"UNKNOWN","rcs_meters":null,"size_class":null,"mass_kg":null,"dimensions":null,"purposes":[],"wikipedia_slug":null,"has_3d_model":false,"image_url":null,"decayed_at":null,"tle_current":{"epoch":"2026-09-20T14:29:13.764192Z","epoch_age_seconds":131418,"freshness":"FRESH","line1":"1 66036U 25233D   26263.60363153  .00000077  00000+0  10010-3 0  9990","line2":"2 66036  89.0062  33.4777 0001767 100.3173 259.8178 13.51027990 46114","mean_motion":13.5102799,"eccentricity":0.0001767,"inclination_deg":89.0062,"raan_deg":33.4777,"arg_perigee_deg":100.3173,"mean_anomaly_deg":259.8178,"bstar":0.0001001,"rev_number":4611,"period_min":106.58550456827,"perigee_km":1067.1629160099,"apogee_km":1069.79455001,"semimajor_km":7446.61573301,"source":"CELESTRAK","updated_at":"2026-09-21T09:00:15.732318Z"}}}